TimeCST,TemperatureF,Dew PointF,Humidity,Sea Level PressureIn,VisibilityMPH,Wind Direction,Wind SpeedMPH,Gust SpeedMPH,PrecipitationIn,Events,Conditions,WindDirDegrees,DateUTC
12:55 AM,3.0,-2.2,79,30.27,10.0,NW,8.1,-,N/A,,Clear,320,2013-01-03 06:55:00
1:55 AM,2.7,-2.7,78,30.27,10.0,NNW,9.2,-,N/A,,Clear,330,2013-01-03 07:55:00
2:41 AM,3.2,-2.2,78,30.29,10.0,NW,8.1,-,N/A,,Mostly Cloudy,320,2013-01-03 08:41:00
2:55 AM,3.7,-2.4,76,30.29,10.0,NNW,8.1,-,N/A,,Mostly Cloudy,330,2013-01-03 08:55:00
3:21 AM,5.0,-2.2,72,30.29,10.0,NW,5.8,-,N/A,,Overcast,320,2013-01-03 09:21:00
3:51 AM,3.2,-2.2,78,30.27,10.0,West,4.6,-,N/A,,Overcast,280,2013-01-03 09:51:00
4:13 AM,1.4,-4.0,78,30.27,10.0,West,4.6,-,N/A,,Overcast,260,2013-01-03 10:13:00
4:26 AM,3.2,-2.2,78,30.27,10.0,West,4.6,-,N/A,,Overcast,270,2013-01-03 10:26:00
4:31 AM,3.2,-2.2,78,30.27,10.0,West,4.6,-,N/A,,Overcast,270,2013-01-03 10:31:00
4:42 AM,3.2,-2.2,78,30.27,10.0,WNW,4.6,-,N/A,,Overcast,290,2013-01-03 10:42:00
4:51 AM,5.0,-0.4,78,30.27,10.0,WNW,3.5,-,N/A,,Overcast,300,2013-01-03 10:51:00
4:54 AM,5.0,-0.4,78,30.27,10.0,WNW,4.6,-,N/A,,Mostly Cloudy,300,2013-01-03 10:54:00
4:59 AM,5.0,-0.4,78,30.27,10.0,WNW,6.9,-,N/A,,Mostly Cloudy,290,2013-01-03 10:59:00
5:13 AM,5.0,-0.4,78,30.26,10.0,West,3.5,-,N/A,,Scattered Clouds,270,2013-01-03 11:13:00
5:55 AM,1.9,-2.2,83,30.25,10.0,SW,9.2,-,N/A,,Scattered Clouds,230,2013-01-03 11:55:00
5:59 AM,3.2,-0.4,85,30.25,10.0,WSW,6.9,-,N/A,,Scattered Clouds,240,2013-01-03 11:59:00
6:00 AM,3.2,-0.4,85,30.25,10.0,WSW,6.9,-,N/A,,Mostly Cloudy,240,2013-01-03 12:00:00
6:08 AM,3.2,-2.2,78,30.26,10.0,WSW,6.9,-,N/A,,Mostly Cloudy,250,2013-01-03 12:08:00
6:10 AM,1.4,-2.2,85,30.26,10.0,WSW,6.9,-,N/A,,Mostly Cloudy,250,2013-01-03 12:10:00
6:19 AM,1.4,-2.2,85,30.26,10.0,WSW,5.8,-,N/A,,Overcast,240,2013-01-03 12:19:00
6:25 AM,3.2,-2.2,78,30.27,10.0,WSW,5.8,-,N/A,,Overcast,250,2013-01-03 12:25:00
6:28 AM,3.2,-0.4,85,30.26,10.0,WSW,5.8,-,N/A,,Overcast,240,2013-01-03 12:28:00
6:33 AM,5.0,-0.4,78,30.26,10.0,WSW,5.8,-,N/A,,Overcast,240,2013-01-03 12:33:00
6:42 AM,5.0,-0.4,78,30.25,10.0,SW,6.9,-,N/A,,Overcast,230,2013-01-03 12:42:00
6:48 AM,5.0,1.4,85,30.25,10.0,SW,6.9,-,N/A,,Overcast,220,2013-01-03 12:48:00
6:55 AM,5.7,0.9,80,30.25,10.0,SW,5.8,-,N/A,,Overcast,220,2013-01-03 12:55:00
7:01 AM,5.0,1.4,85,30.24,10.0,SW,5.8,-,N/A,,Overcast,220,2013-01-03 13:01:00
7:03 AM,5.0,1.4,85,30.24,10.0,SW,6.9,-,N/A,,Mostly Cloudy,220,2013-01-03 13:03:00
7:08 AM,5.0,1.4,85,30.23,10.0,SW,6.9,-,N/A,,Mostly Cloudy,220,2013-01-03 13:08:00
7:11 AM,5.0,-0.4,78,30.23,10.0,SSW,6.9,-,N/A,,Scattered Clouds,210,2013-01-03 13:11:00
7:21 AM,5.0,1.4,85,30.23,10.0,SSW,9.2,-,N/A,,Mostly Cloudy,200,2013-01-03 13:21:00
7:33 AM,5.0,1.4,85,30.23,10.0,SSW,8.1,-,N/A,,Mostly Cloudy,200,2013-01-03 13:33:00
7:55 AM,5.7,0.9,80,30.22,10.0,SSW,6.9,-,N/A,,Overcast,210,2013-01-03 13:55:00
8:11 AM,5.0,-0.4,78,30.22,10.0,SSW,8.1,-,N/A,,Overcast,200,2013-01-03 14:11:00
8:12 AM,5.0,-0.4,78,30.22,10.0,SSW,9.2,-,N/A,,Overcast,200,2013-01-03 14:12:00
8:17 AM,5.0,-0.4,78,30.21,10.0,SSW,8.1,-,N/A,,Mostly Cloudy,200,2013-01-03 14:17:00
8:24 AM,5.0,-0.4,78,30.21,10.0,SSW,6.9,-,N/A,,Scattered Clouds,210,2013-01-03 14:24:00
8:54 AM,5.0,1.4,85,30.20,10.0,SSW,11.5,-,N/A,,Mostly Cloudy,200,2013-01-03 14:54:00
8:55 AM,5.4,0.7,81,30.20,10.0,SSW,10.4,-,N/A,,Scattered Clouds,200,2013-01-03 14:55:00
8:59 AM,6.8,1.4,79,30.20,10.0,South,9.2,-,N/A,,Mostly Cloudy,180,2013-01-03 14:59:00
9:24 AM,8.6,5.0,85,30.19,10.0,South,12.7,-,N/A,,Overcast,190,2013-01-03 15:24:00
9:29 AM,10.4,5.0,79,30.19,10.0,South,10.4,-,N/A,,Overcast,190,2013-01-03 15:29:00
9:39 AM,10.4,5.0,79,30.18,10.0,SSW,10.4,-,N/A,,Overcast,200,2013-01-03 15:39:00
9:55 AM,12.4,6.6,78,30.18,10.0,SSW,10.4,-,N/A,,Overcast,210,2013-01-03 15:55:00
10:14 AM,15.8,8.6,73,30.17,10.0,SW,8.1,-,N/A,,Overcast,220,2013-01-03 16:14:00
10:18 AM,17.6,10.4,73,30.17,10.0,SW,8.1,-,N/A,,Overcast,220,2013-01-03 16:18:00
10:34 AM,17.6,10.4,73,30.17,10.0,SW,9.2,-,N/A,,Scattered Clouds,220,2013-01-03 16:34:00
10:38 AM,17.6,10.4,73,30.16,10.0,SW,8.1,-,N/A,,Scattered Clouds,230,2013-01-03 16:38:00
10:55 AM,19.0,11.8,74,30.15,10.0,SW,12.7,-,N/A,,Clear,230,2013-01-03 16:55:00
11:55 AM,21.6,13.6,72,30.13,10.0,SW,13.8,-,N/A,,Clear,230,2013-01-03 17:55:00
12:55 PM,23.0,15.3,72,30.09,10.0,SW,18.4,-,N/A,,Clear,230,2013-01-03 18:55:00
1:55 PM,24.4,16.0,70,30.04,10.0,SW,13.8,-,N/A,,Clear,220,2013-01-03 19:55:00
2:55 PM,25.9,16.9,69,30.02,10.0,SW,12.7,-,N/A,,Clear,220,2013-01-03 20:55:00
3:55 PM,26.4,16.9,67,30.00,10.0,SW,13.8,-,N/A,,Clear,220,2013-01-03 21:55:00
4:55 PM,23.5,16.2,73,29.99,10.0,SSW,11.5,-,N/A,,Partly Cloudy,210,2013-01-03 22:55:00
5:55 PM,23.9,15.3,70,29.96,10.0,SSW,11.5,-,N/A,,Clear,210,2013-01-03 23:55:00
6:55 PM,24.1,14.2,66,29.93,10.0,SW,17.3,-,N/A,,Clear,230,2013-01-04 00:55:00
7:55 PM,24.6,13.1,62,29.93,10.0,WSW,5.8,-,N/A,,Clear,250,2013-01-04 01:55:00
8:55 PM,22.6,11.8,63,29.91,10.0,WSW,6.9,-,N/A,,Clear,250,2013-01-04 02:55:00
9:55 PM,27.0,14.0,58,29.90,10.0,West,18.4,-,N/A,,Clear,280,2013-01-04 03:55:00
10:55 PM,25.9,14.7,63,29.91,10.0,WNW,17.3,-,N/A,,Clear,290,2013-01-04 04:55:00
11:55 PM,25.2,14.9,65,29.93,10.0,WNW,13.8,-,N/A,,Clear,300,2013-01-04 05:55:00